Wind_Speed
43 42 42 40 42 41 39 38 38 40 42 44 44 51 48 52 50 43 45 46 48 48 49 50 52 56 61 64 70 72 76 78 71 60 58 57 58 53 52 57 62 72 77 79 82
42 41 42 41 41 46 47 40 44 40 43 42 43 48 47 42 42 42 45 47 49 49 49 52 57 61 65 70 73 75 78 70 57 56 58 59 52 51 55 61 64 73 77 79 80
39 44 43 40 38 42 44 45 45 43 45 45 48 50 44 44 44 43 46 50 50 49 53 58 61 65 70 70 69 70 68 56 48 50 56 54 47 50 56 64 65 76 79 77 79
36 41 42 39 39 30 29 43 44 47 46 47 48 48 44 41 43 43 46 50 52 53 58 62 65 69 70 69 62 62 52 48 41 46 48 44 41 54 56 63 62 71 72 73 77
39 37 39 39 37 38 28 35 46 43 39 39 43 41 38 39 42 43 49 51 53 58 62 64 66 68 67 60 55 52 47 46 43 44 41 41 42 46 58 60 71 77 71 79 77
40 38 39 42 44 35 36 33 32 30 28 37 41 39 37 40 41 45 48 52 56 59 63 65 63 61 56 50 48 48 48 46 46 45 42 41 38 49 52 63 72 79 67 79 75
40 40 39 45 40 40 34 31 34 36 35 37 40 36 36 39 41 46 49 54 57 61 63 61 57 52 48 46 44 41 42 45 45 46 44 42 43 44 43 63 62 76 67 76 72
45 40 41 42 42 47 48 34 36 35 35 37 33 31 36 37 43 46 51 53 58 61 57 52 47 42 42 42 40 39 45 46 43 45 44 43 33 35 46 62 57 77 64 81 76
51 45 45 44 40 35 44 35 35 30 32 29 27 31 34 36 42 47 50 54 57 52 47 43 42 40 39 40 42 39 37 29 29 34 36 39 32 39 45 52 51 76 70 87 76
53 51 47 44 37 30 36 37 37 31 32 25 24 28 31 38 42 46 50 52 48 42 44 44 39 34 31 33 30 24 21 19 21 21 28 31 32 38 42 47 51 76 77 91 80
56 49 47 45 40 41 31 35 34 33 22 20 23 28 32 35 42 47 47 43 38 41 42 36 25 24 19 12 9 8 10 12 19 21 26 25 32 36 42 45 51 75 80 87 81
34 51 47 49 41 40 33 32 37 32 20 18 21 28 30 36 41 43 39 31 35 36 23 13 9 12 15 14 10 4 4 6 10 16 22 20 18 36 39 44 53 62 78 80 77
28 40 47 47 39 37 41 34 33 19 14 15 21 23 30 35 37 34 25 26 28 17 24 25 21 19 17 13 7 1 4 5 12 11 20 13 11 32 36 42 49 61 60 75 76
28 36 48 43 38 35 34 27 27 17 12 14 19 24 30 35 29 21 19 20 30 28 31 24 17 14 16 12 8 4 5 14 20 15 11 18 13 18 28 35 51 59 63 62 68
29 40 47 42 37 39 35 28 17 9 9 12 19 24 30 31 18 18 14 21 20 21 21 21 16 12 12 15 4 13 7 11 13 15 18 26 16 13 25 53 59 53 55 60 73
29 42 46 38 33 31 32 20 8 6 8 13 18 22 27 21 12 12 12 14 12 14 15 13 14 8 15 9 11 12 11 9 11 16 29 19 19 12 16 50 45 48 27 58 68
27 39 41 37 32 30 24 17 11 6 4 10 15 21 23 10 13 8 7 10 7 14 17 14 20 7 6 11 9 7 10 9 22 30 31 23 14 9 9 41 39 24 25 57 70
27 39 40 37 30 36 11 15 13 3 3 9 15 18 15 11 16 14 11 5 10 17 18 24 25 15 9 8 9 10 14 13 24 25 34 32 20 18 17 37 27 14 27 56 70
29 41 40 33 32 29 12 16 10 6 5 8 13 14 12 14 19 18 8 10 10 16 22 24 24 20 15 13 18 12 13 10 14 16 29 30 25 14 18 30 18 21 30 37 56
29 39 37 33 38 29 15 16 12 9 9 11 11 13 11 17 22 20 15 1 8 5 15 23 31 22 16 18 25 24 19 9 10 18 24 22 21 15 12 23 22 29 37 38 43
34 40 35 36 32 17 22 18 16 13 14 11 13 16 13 15 18 20 20 13 10 9 12 18 24 20 16 12 21 19 17 17 20 18 24 26 22 17 6 10 21 38 44 37 44
38 37 35 37 20 24 24 21 19 16 16 16 14 19 19 12 14 18 23 18 16 16 11 13 18 19 22 13 17 22 22 21 24 21 15 17 22 19 14 8 18 31 36 38 35
41 40 39 30 25 26 23 23 21 19 19 19 17 22 21 15 11 13 16 17 19 16 14 15 15 17 24 17 15 19 23 24 26 23 18 16 21 19 15 7 6 5 19 37 44
43 42 35 25 28 26 27 25 24 23 23 23 24 25 24 21 13 5 11 13 13 16 16 18 20 18 20 22 19 21 20 23 22 21 21 19 19 17 13 11 7 7 4 15 30
46 39 27 30 30 28 29 26 25 23 24 26 28 30 29 24 19 10 7 9 10 14 19 17 16 20 23 24 20 18 17 19 15 18 13 20 17 16 13 12 8 6 6 8 5
44 36 30 34 32 31 30 27 24 23 23 25 28 29 30 27 22 17 10 3 3 7 12 16 15 15 14 17 19 17 16 15 14 13 14 16 15 13 12 10 8 8 6 2 6
42 26 34 34 34 33 30 27 24 22 21 23 25 28 30 31 30 25 20 11 5 5 6 11 13 12 12 12 12 13 12 11 10 9 7 5 5 6 7 6 6 5 6 6 7
Wind_Direction
284 278 278 273 273 271 268 255 255 261 261 260 262 266 271 272 270 274 279 278 278 280 279 279 281 282 283 283 284 285 285 286 287 282 272 260 254 246 235 224 218 212 211 213 210
281 274 274 276 268 272 266 251 255 255 258 258 264 266 268 268 270 274 279 279 280 281 281 282 284 284 286 287 287 286 286 287 277 267 261 259 249 238 227 218 213 208 208 214 212
277 274 271 277 279 274 276 260 251 252 257 256 260 267 267 269 272 277 279 281 283 283 286 286 287 287 289 290 288 286 285 277 272 262 257 255 243 228 223 216 210 205 206 210 212
275 278 275 274 278 292 288 267 249 253 254 259 263 264 267 269 278 280 282 285 287 288 290 290 291 293 292 289 285 282 278 268 258 254 254 254 242 225 219 212 206 200 207 208 209
272 272 273 277 291 285 287 284 257 249 249 259 263 267 268 275 280 280 286 288 292 293 292 296 297 294 292 287 280 277 267 259 253 251 252 249 239 230 220 210 207 199 199 205 206
273 269 270 275 270 282 288 291 286 249 253 258 263 266 273 280 284 286 289 293 293 294 300 300 297 294 288 284 277 272 265 256 251 247 246 249 238 232 216 209 208 201 201 204 199
266 267 264 268 269 272 272 290 290 249 249 259 267 269 279 283 287 291 294 296 299 302 301 300 296 292 289 281 275 271 265 258 251 247 242 248 235 233 214 212 209 197 196 205 198
264 260 262 262 273 273 276 283 284 253 256 262 268 279 282 284 290 296 298 302 305 304 302 299 298 294 287 277 273 272 270 265 255 247 242 245 236 227 215 214 208 202 195 201 201
257 255 256 261 269 272 279 284 288 266 261 264 274 285 281 291 298 299 305 308 307 305 303 303 298 292 281 277 280 283 275 263 237 236 239 240 240 224 215 213 204 192 190 198 202
257 251 251 254 257 272 271 284 280 270 264 280 292 286 292 300 302 307 310 311 309 307 308 302 296 289 283 284 287 280 272 249 225 215 227 234 233 220 214 209 203 193 190 199 204
252 244 244 247 250 258 278 281 273 282 285 286 289 295 297 303 310 314 316 313 313 312 307 302 300 299 301 303 305 300 277 226 217 223 224 221 229 215 211 203 209 189 192 200 203
247 237 235 241 245 249 266 287 283 283 278 281 296 298 307 313 317 319 319 323 320 316 325 341 35 66 75 62 37 11 110 173 207 214 205 212 227 210 204 199 205 200 191 198 201
240 231 227 237 239 247 256 275 277 281 279 293 298 308 316 322 324 325 339 334 337 18 73 73 80 80 63 59 45 6 358 166 163 164 208 246 222 205 199 194 201 204 201 203 201
239 216 222 229 232 238 250 271 271 277 277 291 306 321 324 327 332 340 358 42 71 72 63 62 69 58 53 41 37 85 116 150 153 157 133 144 130 207 211 203 191 200 204 204 197
233 214 216 220 229 235 244 273 282 247 283 300 318 326 331 333 347 9 75 84 67 64 69 70 62 50 42 47 66 109 88 142 110 152 146 157 172 139 211 200 188 186 197 205 196
232 213 212 209 219 233 253 259 223 245 275 321 326 335 336 340 23 33 100 87 68 69 50 47 50 39 30 56 37 130 118 74 65 142 156 154 151 145 223 201 188 184 189 204 200
228 214 205 203 217 227 255 258 207 231 304 332 336 342 340 9 37 49 119 53 49 23 22 31 50 60 52 55 111 87 145 111 99 110 136 159 162 108 192 192 171 185 205 202 202
217 210 202 205 218 224 253 195 181 201 3 354 351 346 0 46 46 60 137 67 34 36 32 26 19 58 128 78 89 124 125 130 82 86 109 119 126 187 202 189 178 194 211 203 202
210 205 202 205 217 219 235 188 164 122 64 15 10 1 34 69 60 56 133 55 62 39 39 33 25 67 117 102 108 128 152 121 74 67 87 102 94 132 207 192 204 199 183 191 205
203 205 198 202 220 223 210 177 144 122 79 43 27 24 59 81 72 61 66 20 17 0 25 38 37 67 118 106 78 70 127 128 124 88 90 89 77 92 172 195 155 154 175 182 212
199 197 194 208 216 213 183 159 134 113 81 58 45 40 66 94 77 67 67 57 36 43 33 40 39 76 98 62 71 79 90 118 129 109 103 97 85 67 73 149 150 161 162 182 183
197 191 193 209 205 170 169 142 127 110 87 67 58 51 51 96 81 77 62 61 54 63 61 58 55 54 74 85 90 85 84 96 118 115 105 105 91 72 54 289 117 153 166 183 198
188 185 196 203 171 163 154 136 125 110 90 75 68 60 52 65 94 81 74 58 51 47 61 68 75 71 66 99 94 88 90 89 103 104 108 103 100 105 83 25 350 107 110 164 184
181 183 195 183 166 160 145 134 123 108 95 82 71 65 60 55 69 101 92 74 48 63 76 84 83 88 88 79 100 88 87 96 99 109 111 113 108 105 95 81 46 1 3 147 154
176 185 186 164 160 153 140 133 126 111 100 85 76 69 62 60 59 73 99 92 56 62 66 78 80 96 101 101 104 87 88 88 107 91 100 118 121 124 126 127 104 80 5 297 196
174 175 160 160 150 145 140 132 125 116 102 92 82 76 71 63 57 64 80 106 65 57 70 84 87 95 88 96 98 95 96 96 102 97 91 90 100 112 113 135 151 159 159 166 299
178 168 161 155 151 141 137 130 124 118 109 96 86 79 76 70 66 58 56 69 69 69 74 92 99 90 83 86 88 87 89 92 95 90 83 78 107 113 114 122 144 164 169 178 196
Height
5737 5736 5735 5734 5732 5732 5730 5731 5731 5733 5733 5732 5731 5730 5729 5728 5726 5724 5724 5721 5718 5716 5712 5710 5707 5703 5698 5694 5688 5685 5683 5680 5681 5675 5670 5664 5664 5672 5681 5688 5698 5706 5721 5737 5743
5727 5725 5724 5724 5722 5720 5720 5719 5720 5722 5722 5722 5721 5720 5718 5717 5716 5714 5711 5708 5706 5703 5700 5696 5692 5686 5681 5674 5668 5663 5659 5663 5656 5650 5646 5641 5647 5652 5661 5669 5678 5691 5711 5723 5739
5718 5715 5714 5713 5713 5710 5709 5708 5709 5710 5712 5712 5711 5710 5708 5706 5706 5702 5699 5696 5692 5689 5685 5679 5675 5670 5663 5655 5646 5643 5642 5638 5640 5633 5629 5627 5632 5638 5642 5652 5664 5677 5697 5712 5728
5708 5707 5704 5704 5703 5701 5700 5696 5698 5699 5700 5702 5700 5698 5698 5696 5695 5689 5687 5684 5679 5674 5668 5662 5657 5650 5644 5635 5628 5623 5624 5621 5625 5617 5614 5617 5623 5622 5629 5641 5655 5672 5689 5704 5721
5699 5697 5696 5695 5695 5693 5691 5691 5688 5689 5690 5692 5690 5689 5688 5687 5682 5679 5675 5671 5666 5658 5651 5644 5637 5628 5623 5616 5609 5608 5609 5606 5608 5606 5607 5606 5610 5616 5618 5634 5643 5655 5669 5683 5706
5688 5689 5688 5686 5682 5684 5685 5683 5681 5682 5683 5682 5681 5680 5679 5678 5671 5668 5663 5658 5651 5642 5635 5626 5618 5608 5603 5599 5594 5593 5592 5594 5594 5595 5597 5597 5602 5598 5615 5622 5631 5643 5660 5675 5689
5677 5678 5678 5676 5677 5677 5677 5675 5673 5672 5673 5673 5673 5672 5671 5667 5662 5657 5652 5644 5636 5628 5618 5609 5600 5592 5588 5583 5580 5579 5578 5577 5582 5584 5588 5587 5589 5594 5612 5617 5623 5638 5656 5673 5687
5664 5666 5668 5668 5668 5670 5669 5669 5666 5664 5665 5665 5664 5664 5662 5657 5652 5646 5640 5630 5621 5611 5601 5593 5585 5580 5574 5570 5569 5568 5564 5564 5570 5569 5577 5577 5586 5591 5596 5601 5617 5631 5647 5666 5674
5652 5654 5657 5659 5662 5663 5662 5661 5659 5658 5658 5657 5657 5656 5654 5648 5643 5636 5627 5617 5606 5596 5587 5581 5576 5569 5564 5559 5557 5554 5549 5550 5553 5559 5565 5570 5578 5581 5588 5597 5611 5625 5639 5652 5664
5636 5641 5647 5649 5653 5653 5654 5654 5653 5653 5652 5651 5651 5651 5646 5638 5633 5625 5616 5605 5593 5583 5576 5569 5564 5559 5555 5550 5549 5544 5543 5544 5548 5555 5560 5565 5572 5576 5584 5592 5605 5620 5633 5643 5656
5618 5627 5635 5638 5643 5646 5649 5648 5647 5647 5645 5646 5645 5642 5636 5630 5624 5617 5605 5592 5583 5575 5566 5559 5555 5550 5547 5544 5542 5540 5539 5541 5545 5549 5554 5562 5565 5572 5579 5589 5599 5616 5624 5635 5650
5603 5613 5623 5627 5636 5641 5642 5641 5641 5641 5642 5641 5641 5635 5629 5623 5618 5605 5595 5586 5577 5567 5558 5553 5549 5547 5545 5543 5542 5542 5542 5543 5546 5550 5556 5560 5564 5569 5576 5586 5598 5609 5620 5628 5646
5594 5602 5611 5620 5629 5633 5635 5636 5636 5636 5636 5637 5634 5629 5625 5619 5609 5598 5590 5582 5572 5563 5558 5554 5552 5550 5548 5547 5546 5545 5545 5545 5548 5552 5557 5560 5563 5570 5577 5586 5597 5605 5616 5627 5644
5587 5594 5604 5612 5622 5626 5629 5630 5631 5632 5634 5634 5630 5626 5619 5611 5602 5593 5587 5584 5577 5570 5563 5561 5559 5556 5553 5551 5550 5547 5547 5546 5548 5551 5557 5563 5570 5575 5580 5587 5596 5606 5620 5627 5642
5579 5586 5596 5606 5614 5619 5622 5623 5627 5630 5630 5631 5627 5621 5613 5605 5598 5592 5589 5585 5580 5575 5572 5568 5563 5561 5558 5556 5552 5553 5551 5551 5553 5558 5562 5568 5572 5578 5580 5587 5601 5608 5620 5624 5639
5572 5580 5591 5602 5608 5614 5617 5621 5625 5629 5628 5627 5622 5616 5609 5602 5596 5592 5590 5586 5582 5579 5576 5572 5568 5563 5562 5559 5557 5556 5555 5555 5556 5559 5566 5571 5577 5581 5582 5589 5600 5608 5614 5621 5636
5565 5575 5588 5597 5603 5610 5613 5620 5625 5624 5627 5624 5618 5613 5607 5600 5596 5592 5590 5587 5585 5583 5579 5575 5571 5566 5565 5564 5563 5562 5562 5562 5563 5565 5569 5572 5579 5581 5586 5595 5606 5611 5612 5620 5635
5562 5571 5582 5591 5599 5604 5610 5619 5620 5622 5623 5619 5615 5611 5605 5600 5596 5590 5590 5590 5588 5586 5582 5579 5572 5569 5567 5567 5566 5566 5567 5569 5569 5570 5572 5577 5580 5586 5590 5598 5606 5610 5614 5621 5635
5559 5569 5578 5588 5596 5603 5611 5617 5616 5620 5620 5616 5614 5610 5604 5599 5596 5592 5592 5592 5591 5589 5587 5582 5575 5571 5571 5571 5570 5571 5572 5574 5575 5576 5577 5579 5584 5591 5594 5603 5609 5611 5617 5624 5635
5556 5565 5577 5586 5593 5602 5611 5614 5616 5618 5617 5616 5614 5609 5604 5600 5597 5596 5594 5594 5593 5591 5589 5586 5582 5578 5576 5576 5576 5573 5576 5579 5581 5583 5583 5587 5589 5595 5599 5607 5610 5614 5622 5630 5637
5553 5565 5576 5584 5591 5601 5609 5611 5614 5616 5616 5616 5613 5609 5605 5602 5600 5599 5599 5596 5594 5592 5590 5590 5588 5586 5585 5581 5580 5582 5582 5583 5586 5588 5589 5592 5598 5601 5604 5608 5612 5618 5623 5631 5636
5551 5565 5573 5581 5593 5601 5607 5609 5613 5615 5615 5616 5613 5609 5605 5603 5603 5602 5600 5598 5596 5594 5594 5594 5592 5590 5588 5587 5586 5586 5586 5587 5589 5594 5595 5597 5602 5605 5608 5615 5612 5619 5625 5635 5639
5552 5565 5573 5582 5593 5600 5605 5608 5612 5615 5616 5616 5615 5611 5607 5605 5604 5603 5602 5601 5599 5597 5596 5596 5595 5594 5594 5594 5593 5592 5593 5594 5596 5598 5603 5605 5609 5611 5614 5617 5618 5621 5626 5634 5641
5555 5565 5575 5586 5593 5599 5603 5608 5613 5615 5618 5617 5616 5613 5610 5608 5605 5605 5604 5604 5603 5602 5599 5599 5598 5598 5598 5598 5599 5598 5599 5601 5604 5605 5607 5609 5612 5615 5620 5620 5623 5626 5628 5634 5639
5556 5569 5580 5587 5593 5600 5603 5609 5614 5616 5619 5619 5618 5616 5614 5611 5608 5606 5606 5607 5606 5604 5603 5602 5602 5602 5602 5604 5604 5606 5607 5608 5610 5611 5614 5614 5616 5618 5622 5624 5625 5629 5632 5636 5640
5561 5572 5580 5586 5594 5600 5605 5611 5615 5618 5620 5622 5621 5619 5617 5615 5612 5609 5607 5607 5607 5607 5607 5607 5607 5606 5606 5607 5609 5611 5613 5612 5614 5616 5618 5618 5621 5625 5627 5630 5632 5634 5637 5640 5643
5565 5574 5581 5588 5596 5602 5608 5613 5617 5620 5622 5624 5624 5623 5621 5619 5615 5612 5609 5608 5608 5608 5608 5609 5610 5610 5610 5610 5611 5613 5613 5614 5615 5617 5620 5623 5626 5627 5631 5634 5637 5639 5640 5642 5645